THORAD DELTA 1 DEB, 8183

Orbit data source: Space-Track

THORAD DELTA 1 DEB, 8183 is space debris in SSO originally from a launch on Fri, 15 Nov 1974 UTC launched from the Air Force Western Test Range (AFWTR). Debris objects in space refer to the collection of defunct objects orbiting the Earth. Examples of debris include non-operational satellites, rocket bodies, and fragments generated from explosions, collisions, or faulty payload assembly.

Loading next visibility...
Identifier
8183, 1974-089AZ
Orbit
SSO
Country
Flag of USUS
Related business
Manufacturer
Unknown
Mission
Spacecraft
Bus & Motor
Unknown
Mass
Unknown
Launch date (UTC)
1974-11-15 (51 years ago)
Launch vehicle
Unknown
Launch site
Air Force Western Test Range (AFWTR)
Object type
Payload
Rocket body
Debris
Shape & HBR
Unknown shape, 0.1 m
Radar Cross Section
Medium (>0.1 m² and <1 m²)

Expand to show TLE details & history
Last TLE update: 10 hours ago

TLE from 10 hours ago
0 THORAD DELTA 1 DEB
1  8183U 74089AZ  26035.52215778  .00000017  00000-0  43040-3 0  9993
2  8183 100.7747 234.9740 0106305  28.3497  29.0233 12.32965235304425
Epoch: 2026-02-04T12:31Z
TLE epoch observation values (Epoch: 2026-02-04T12:31:54.432Z)
Latitude
56.48391°
Longitude
-104.30465°
Altitude
1,472.463 km
Speed
7.165 km/s
True Right ascension
14h 33m 26s
True Declination
56° 20' 23"
Sunlit
Object was in daylight at epoch
Visualization orbit readout
Latitude
Unknown
Longitude
Unknown
Altitude
Unknown
Speed
Unknown
Apparent Right ascension
Unknown
Apparent Declination
Unknown
Sunlit
N/A
Visualization observer readout
Local Sidereal Time
00:43:58
Azimuth
Unknown
Elevation
Unknown
Doppler factor
Unknown
Orbital elements
Apogee altitude
1,618.191 km
Perigee altitude
1,449.97 km
Semi-major axis
7,912.217 km
Eccentricity
0.01063
Inclination
100.7747°
RAAN
234.974°
Arg. of periapsis
28.3497°
True anomaly
29.62125°
Mean anomaly
29.0233°
Eccentric anomaly
29.32157°
Mean motion
3.08387 °/min
Orbital period
116.74 mins
BSTAR
0.0004304
Loading maneuver chart data...
Computing Atmospheric mass density...

Documentation

Showing up to 5 results
|